sat.trackr.live / text

‹ back to catalog

THEMIS E

NORAD 30798 · 2007-004E

PAYLOAD ACTIVE UNKNOWN

§ Identity

Operator
Country
US
Launch date
2007-02-17
Launch site
AFETR
Launch vehicle
Mass (kg)
RCS (m²)
0.63

External: N2YO · Heavens-Above · Gunter

§ Orbital elements

Epoch: 2026-05-25T03:15:03.173760Z

Period
1,635.58 min
Inclination
6.0930°
Eccentricity
0.8444872
Mean motion
0.88042011 rev/d
Perigee alt
773.0 km
Apogee alt
78,439.1 km
Semi-major
45,984.2 km
B*
0.0000e+0
RAAN
99.4805°
Arg perigee
211.3315°
Mean anomaly
345.3894°
Rev number
6,571

§ Raw data

THEMIS E1 30798U 07004E   26145.13545340 -.00000095  00000+0  00000+0 0  99942 30798   6.0930  99.4805 8444872 211.3315 345.3894  0.88042011 65714

JSON: /api/v1/satellites/30798 · /tle

For live sub-satellite position, see the globe view (requires WebGL).

§ Visibility from observer

Set your observer location to see the next 7 days of passes ≥ 10°. The values pass through the URL so the page stays shareable.

No JS? Fill the form by hand. The geolocation button needs JavaScript.